COSMOS 249 DEB, 3583

Orbit data source: Space-Track

COSMOS 249 DEB, 3583 is space debris in LEO originally from a launch on Sun, 20 Oct 1968 UTC launched from the Tyuratam Missile And Space Complex (TTMTR). Debris objects in space refer to the collection of defunct objects orbiting the Earth. Examples of debris include non-operational satellites, rocket bodies, and fragments generated from explosions, collisions, or faulty payload assembly.

Loading next visibility...
Identifier
3583, 1968-091R
Orbit
LEO
Last TLE update
18 hours ago
Origin
Manufacturer
Unknown
Mission
Spacecraft
Bus & Motor
Unknown
Mass
Unknown
Launch date (UTC)
1968-10-20 (57 years ago)
Launch vehicle
Unknown
Launch site
Tyuratam Missile And Space Complex (TTMTR)
Object type
Payload
Rocket body
Debris
Shape & HBR
Unknown
Radar Cross Section
Small (<0.1 m²)

Expand to show TLE details & history

TLE from 18 hours ago
0 COSMOS 249 DEB
1  3583U 68091R   25115.07203502  .00001296  00000-0  18908-2 0  9992
2  3583  62.0778 102.4008 0706002  43.0129 322.3877 12.85328992630842
Epoch: 2025-04-25T01:43Z
Definitive object data (Epoch: 2025-04-25T01:43:43.825Z)
Latitude
-0.00002°
Longitude
-136.86619°
Altitude
906.711 km
Speed
7.596 km/s
True Right ascension
06h 49m 36s
True Declination
0° 00' 00"
Sunlit
Object was in daylight at TLE epoch
Visualization TLE readout
Latitude
-22.54455°
Longitude
53.97176°
Altitude
1,841.339 km
Speed
6.728 km/s
Apparent Right ascension
17h 46m 02s
Apparent Declination
-34° 59' 42"
Sunlit
Object is in daylight
Visualization observer readout
Local Sidereal Time
02:49:14
Azimuth
263.701° W
Elevation
-54.927°
Doppler factor
1
Orbital elements
Apogee altitude
1,862.566 km
Perigee altitude
775.708 km
Semi-major axis
7,697.274 km
Eccentricity
0.0706002
Inclination
62.0778°
RAAN
102.4008°
Arg. of periapsis
43.0129°
True anomaly
317.08787°
Mean anomaly
322.3877°
Eccentric anomaly
319.77544°
Mean motion
3.21394 °/min
BSTAR
0.0018908
Orbital period
112.01 mins
Loading maneuver chart data...
Loading SW <> Apogee altitude chart data...

COSMOS 249 DEB Visibility forecast

Observer location: undefined°, undefined°

Span
Click to sort rows by Start time (UTC) header in descending order
Start Az.
Max El. time (UTC)
Max El. Az.
Max El.
End time (UTC)
End Az.
8 mins2025-04-26 00:15:26.598Z178.466° S2025-04-26 00:19:26.598Z116.203° SE30.333°2025-04-26 00:23:26.598Z55.748° ENE
7 mins2025-04-26 02:12:26.598Z271.523° WNW2025-04-26 02:15:26.598Z325.582° NNW26.774°2025-04-26 02:19:26.598Z17.483° NNE
12 mins2025-04-26 08:05:26.598Z344.968° N2025-04-26 08:10:26.598Z44.499° NE29.577°2025-04-26 08:17:26.598Z105.557° ESE
14 mins2025-04-26 10:01:26.598Z312.355° NW2025-04-26 10:06:26.598Z245.35° WSW41.2°2025-04-26 10:15:26.598Z162.183° S
|